1487012400.91,42643,11.81,74284.8,-8.55,-40.47,-40.53,0,*5A
1487012402.11,42644,11.81,74284.0,-8.55,-40.53,-40.65,0,*5D
1487012403.31,42645,11.81,74284.0,-8.55,-40.53,-40.73,0,*5B
1487012404.51,42646,11.81,74284.0,-8.55,-40.53,-40.65,0,*5F
1487012405.71,42647,11.81,74284.8,-8.55,-40.53,-40.65,0,*5E
1487012406.91,42648,11.81,74282.5,-8.55,-40.47,-40.65,0,*54
1487012408.11,42649,11.81,74286.5,-8.55,-40.53,-40.65,0,*50
1487012409.32,42650,11.81,74286.5,-8.55,-40.35,-40.53,0,*5D
1487012410.52,42651,11.81,74286.3,-8.55,-40.47,-40.65,0,*5C
1487012411.72,42652,11.81,74288.0,-8.55,-40.53,-40.65,0,*5A
1487012412.92,42653,11.81,74284.5,-8.55,-40.53,-40.73,0,*5C
1487012414.13,42654,11.81,74286.5,-8.55,-40.47,-40.65,0,*59
1487012415.32,42655,11.81,74282.8,-8.55,-40.53,-40.65,0,*5D
1487012416.53,42656,11.81,74286.3,-8.55,-40.47,-40.53,0,*5E
1487012417.79,42657,11.81,74286.3,-8.51,-40.41,-40.47,0,*58
1487012419.06,42658,11.81,74280.0,-8.51,-40.47,-40.59,0,*5E
1487012420.26,42659,11.81,74286.3,-8.55,-40.65,-40.73,0,*53
1487012421.47,42660,11.81,74284.8,-8.55,-40.73,-40.91,0,*52
1487012422.67,42661,11.81,74286.3,-8.55,-40.65,-40.91,0,*54
1487012423.89,42662,11.81,74286.0,-8.55,-40.65,-40.79,0,*51
1487012425.11,42663,11.81,74284.5,-8.55,-40.73,-40.91,0,*51
1487012426.33,42664,11.81,74286.3,-8.55,-40.79,-40.73,0,*50
1487012427.55,42665,11.81,74286.8,-8.55,-40.65,-40.79,0,*56
1487012428.76,42666,11.81,74286.3,-8.55,-40.73,-40.91,0,*54
1487012430.01,42667,11.81,74288.5,-8.55,-40.91,-40.97,0,*5F
1487012431.27,42668,11.81,74284.5,-8.55,-40.79,-40.97,0,*56
1487012432.5,42669,11.81,74284.5,-8.55,-40.73,-40.97,0,*5D
1487012433.71,42670,11.81,74284.3,-8.59,-40.65,-40.91,0,*58
1487012434.93,42671,11.81,74284.8,-8.59,-40.65,-40.79,0,*5F
1487012436.13,42672,11.81,74286.8,-8.59,-40.47,-40.65,0,*51
1487012437.32,42673,11.81,74284.5,-8.59,-40.53,-40.65,0,*55
1487012438.55,42674,11.81,74290.0,-8.55,-40.53,-40.79,0,*53
1487012439.75,42675,11.81,74286.3,-8.55,-40.53,-40.73,0,*58
1487012440.97,42676,11.81,74284.0,-8.55,-40.47,-40.79,0,*54
1487012442.17,42677,11.81,74286.5,-8.59,-40.53,-40.73,0,*56
1487012443.38,42678,11.81,74288.3,-8.59,-40.47,-40.53,0,*5E
1487012444.57,42679,11.81,74284.8,-8.59,-40.53,-40.65,0,*5F
1487012445.78,42680,11.81,74290.3,-8.59,-40.47,-40.53,0,*59
1487012446.97,42681,11.81,74288.0,-8.55,-40.53,-40.65,0,*54
1487012448.18,42682,11.81,74286.0,-8.55,-40.53,-40.73,0,*50
1487012449.44,42683,11.81,74284.8,-8.51,-40.41,-40.53,0,*54
1487012450.64,42684,11.81,74290.5,-8.55,-40.47,-40.47,0,*54
1487012451.91,42685,11.81,74286.0,-8.51,-40.47,-40.59,0,*5E
1487012453.1,42686,11.81,74286.0,-8.59,-40.53,-40.73,0,*58
1487012454.3,42687,11.81,74286.0,-8.59,-40.53,-40.65,0,*5E
1487012455.5,42688,11.81,74284.8,-8.55,-40.47,-40.65,0,*58
1487012456.7,42689,11.81,74286.5,-8.55,-40.53,-40.65,0,*5C
1487012457.93,42690,11.81,74284.5,-8.55,-40.73,-40.79,0,*5B
1487012459.13,42691,11.81,74288.8,-8.55,-40.65,-40.91,0,*5B
1487012460.33,42692,11.81,74290.0,-8.55,-40.53,-40.65,0,*56
1487012461.54,42693,11.81,74286.8,-8.55,-40.53,-40.53,0,*52
1487012462.74,42694,11.81,74288.8,-8.55,-40.47,-40.53,0,*50
1487012464.03,42695,11.81,74286.8,-8.51,-40.29,-40.41,0,*5E
1487012465.26,42696,11.81,74288.0,-8.51,-40.47,-40.65,0,*53
1487012466.55,42697,11.81,74290.3,-8.51,-40.59,-40.59,0,*52
1487012467.84,42698,11.81,74288.5,-8.51,-40.59,-40.59,0,*5D
1487012469.06,42699,11.81,74292.3,-8.55,-40.65,-40.79,0,*55
1487012470.26,42700,11.81,74290.3,-8.55,-40.53,-40.65,0,*5C
1487012471.46,42701,11.81,74288.0,-8.55,-40.53,-40.65,0,*5D
1487012472.65,42702,11.81,74286.3,-8.55,-40.53,-40.65,0,*5E
1487012473.86,42703,11.81,74290.0,-8.55,-40.47,-40.65,0,*5A
1487012475.09,42704,11.81,74288.3,-8.51,-40.47,-40.73,0,*5E
1487012476.32,42705,11.81,74288.5,-8.55,-40.65,-40.79,0,*51
1487012477.54,42706,11.81,74286.0,-8.55,-40.73,-40.79,0,*55
1487012478.76,42707,11.81,74288.8,-8.55,-40.65,-40.79,0,*53
1487012479.97,42708,11.81,74288.3,-8.55,-40.73,-40.91,0,*5D
1487012481.18,42709,11.81,74284.5,-8.55,-40.73,-40.91,0,*5C
1487012482.38,42710,11.81,74290.3,-8.55,-40.53,-40.65,0,*5D
1487012483.61,42711,11.81,74290.0,-8.55,-40.65,-40.85,0,*57
1487012484.81,42712,11.81,74284.3,-8.55,-40.53,-40.73,0,*58
1487012486.04,42713,11.81,74284.3,-8.55,-40.65,-40.79,0,*56
1487012487.26,42714,11.81,74288.0,-8.55,-40.73,-40.79,0,*56
1487012488.5,42715,11.81,74288.8,-8.51,-40.73,-40.91,0,*55
1487012489.71,42716,11.81,74288.8,-8.55,-40.65,-40.91,0,*55
1487012490.93,42717,11.81,74286.0,-8.55,-40.65,-40.79,0,*52
1487012492.13,42718,11.81,74290.8,-8.55,-40.65,-40.73,0,*57
1487012493.35,42719,11.81,74290.3,-8.55,-40.65,-40.79,0,*5C
1487012494.61,42720,11.81,74290.5,-8.51,-40.59,-40.73,0,*57
1487012495.85,42721,11.81,74286.8,-8.55,-40.59,-40.91,0,*5E
1487012497.09,42722,11.81,74288.3,-8.55,-40.91,-40.97,0,*5F
1487012498.29,42723,11.81,74290.3,-8.55,-40.65,-40.73,0,*5F
1487012499.51,42724,11.81,74288.3,-8.55,-40.65,-40.79,0,*52
1487012500.75,42725,11.81,74290.0,-8.55,-40.73,-40.97,0,*54
1487012501.99,42726,11.81,74292.0,-8.55,-40.73,-40.97,0,*57
1487012503.19,42727,11.81,74290.0,-8.55,-40.65,-40.73,0,*5B
1487012504.39,42728,11.81,74288.8,-8.55,-40.65,-40.73,0,*54
1487012505.6,42729,11.81,74290.3,-8.59,-40.65,-40.79,0,*53
1487012506.87,42730,11.81,74292.0,-8.61,-40.73,-40.85,0,*54
1487012508.06,42731,11.81,74292.0,-8.59,-40.53,-40.65,0,*52
1487012509.28,42732,11.81,74290.5,-8.59,-40.53,-40.79,0,*5C
1487012510.48,42733,11.81,74288.5,-8.55,-40.65,-40.65,0,*59
1487012511.7,42734,11.81,74292.5,-8.55,-40.65,-40.79,0,*53
1487012512.9,42735,11.81,74290.8,-8.55,-40.53,-40.73,0,*5D
1487012514.13,42736,11.81,74288.3,-8.55,-40.53,-40.79,0,*54
1487012515.39,42737,11.81,74290.8,-8.55,-40.79,-40.97,0,*5D
1487012516.64,42738,11.81,74290.8,-8.59,-40.79,-40.97,0,*5E
1487012517.86,42739,11.81,74288.8,-8.59,-40.65,-40.79,0,*52
1487012519.08,42740,11.81,74290.8,-8.59,-40.73,-40.79,0,*5B
1487012520.32,42741,11.81,74290.5,-8.59,-40.73,-40.97,0,*5A
1487012521.57,42742,11.81,74288.0,-8.59,-40.79,-40.97,0,*53
1487012522.8,42743,11.81,74290.0,-8.59,-40.73,-40.79,0,*58
1487012524.06,42744,11.75,74286.8,-8.55,-40.79,-40.97,0,*59
1487012525.28,42745,11.81,74294.5,-8.59,-40.73,-40.79,0,*5E
1487012526.49,42746,11.81,74292.3,-8.55,-40.73,-40.91,0,*57
1487012527.69,42747,11.81,74290.0,-8.59,-40.65,-40.91,0,*5D
1487012528.89,42748,11.81,74292.5,-8.59,-40.65,-40.91,0,*52
1487012530.11,42749,11.81,74288.3,-8.59,-40.65,-40.79,0,*55
1487012531.33,42750,11.81,74288.8,-8.59,-40.65,-40.79,0,*5D
1487012532.55,42751,11.81,74290.5,-8.59,-40.65,-40.79,0,*5C
1487012533.75,42752,11.75,74288.5,-8.59,-40.65,-40.73,0,*55
1487012535.0,42753,11.81,74290.0,-8.59,-40.79,-40.85,0,*50
1487012536.22,42754,11.81,74292.0,-8.59,-40.65,-40.79,0,*59
1487012537.51,42755,11.81,74290.8,-8.61,-40.79,-40.97,0,*5E
1487012538.73,42756,11.81,74292.0,-8.59,-40.73,-40.79,0,*5C
1487012539.99,42757,11.81,74288.3,-8.59,-40.79,-40.97,0,*57
1487012541.25,42758,11.81,74288.8,-8.61,-40.73,-40.79,0,*59
1487012542.46,42759,11.75,74288.3,-8.59,-40.65,-40.79,0,*54
1487012543.66,42760,11.81,74288.8,-8.59,-40.65,-40.73,0,*54
1487012544.86,42761,11.81,74294.0,-8.59,-40.65,-40.65,0,*52
1487012546.06,42762,11.81,74294.3,-8.59,-40.53,-40.53,0,*51
1487012547.25,42763,11.81,74292.0,-8.59,-40.53,-40.65,0,*55
1487012548.46,42764,11.81,74290.8,-8.59,-40.47,-40.53,0,*52
1487012549.65,42765,11.75,74290.8,-8.59,-40.65,-40.65,0,*56
1487012550.91,42766,11.81,74294.5,-8.61,-40.73,-40.85,0,*57
1487012552.17,42767,11.81,74288.8,-8.59,-40.79,-40.97,0,*54
1487012553.38,42768,11.81,74290.5,-8.59,-40.73,-40.91,0,*57
1487012554.61,42769,11.81,74290.5,-8.59,-40.73,-40.97,0,*50
1487012555.9,42770,11.81,74294.3,-8.61,-40.85,-40.97,0,*5A
1487012557.15,42771,11.81,74292.3,-8.61,-41.03,-41.17,0,*5D
1487012558.36,42772,11.81,74294.3,-8.59,-40.91,-41.11,0,*59
1487012559.65,42773,11.81,74294.5,-8.61,-40.79,-40.85,0,*59
1487012560.91,42774,11.81,74292.8,-8.61,-40.79,-41.03,0,*51
1487012562.17,42775,11.81,74290.3,-8.61,-40.73,-40.85,0,*55
1487012563.44,42776,11.81,74290.0,-8.61,-40.79,-41.03,0,*53
1487012564.73,42777,11.81,74292.3,-8.61,-40.79,-40.97,0,*5E
1487012565.98,42778,11.81,74290.0,-8.59,-40.79,-40.85,0,*59
1487012567.24,42779,11.81,74292.5,-8.61,-40.73,-40.79,0,*5A
1487012568.49,42780,11.81,74290.8,-8.61,-40.73,-40.79,0,*5C
1487012569.76,42781,11.81,74288.8,-8.61,-40.73,-40.85,0,*5E
1487012571.02,42782,11.81,74292.0,-8.61,-40.73,-40.85,0,*5D
1487012572.28,42783,11.81,74292.0,-8.61,-40.73,-40.85,0,*5C
1487012573.54,42784,11.75,74288.8,-8.61,-40.73,-40.79,0,*58
1487012574.83,42785,11.81,74294.3,-8.61,-40.59,-40.59,0,*53
1487012576.11,42786,11.81,74290.5,-8.61,-40.59,-40.79,0,*52
1487012577.4,42787,11.75,74288.5,-8.61,-40.79,-40.85,0,*52
1487012578.66,42788,11.81,74292.0,-8.61,-40.73,-40.85,0,*57
1487012579.95,42789,11.81,74290.8,-8.61,-40.79,-40.97,0,*5F
1487012581.22,42790,11.81,74292.5,-8.61,-40.73,-40.97,0,*5D
1487012582.48,42791,11.75,74288.8,-8.61,-40.79,-41.03,0,*5A
1487012583.75,42792,11.81,74294.3,-8.61,-40.73,-40.85,0,*5C
1487012585.03,42793,11.81,74292.3,-8.61,-40.79,-40.85,0,*57
1487012586.27,42794,11.81,74294.0,-8.61,-40.73,-41.03,0,*55
1487012587.54,42795,11.81,74294.5,-8.61,-40.73,-40.85,0,*5B
1487012588.79,42796,11.81,74292.8,-8.61,-40.73,-40.79,0,*5B
1487012590.06,42797,11.81,74294.8,-8.61,-40.73,-40.85,0,*59
1487012591.3,42798,11.75,74290.3,-8.63,-40.85,-41.03,0,*52
1487012592.53,42799,11.81,74292.8,-8.63,-40.85,-41.03,0,*53
1487012593.77,42800,11.81,74292.5,-8.63,-40.73,-40.85,0,*5A
1487012595.0,42801,11.75,74288.0,-8.63,-40.73,-40.85,0,*5B
1487012596.24,42802,11.81,74294.3,-8.63,-40.73,-40.85,0,*58
1487012597.46,42803,11.81,74294.3,-8.63,-40.73,-40.79,0,*5A
1487012598.7,42804,11.81,74292.5,-8.63,-40.73,-40.85,0,*5E
1487012599.99,42805,11.81,74292.0,-8.61,-40.79,-40.85,0,*57
1487012601.25,42806,11.75,74290.0,-8.63,-40.79,-40.97,0,*55
1487012602.47,42807,11.75,74294.0,-8.63,-40.73,-40.79,0,*5E
1487012603.71,42808,11.81,74294.8,-8.63,-40.79,-41.03,0,*57
1487012604.96,42809,11.81,74294.3,-8.63,-40.79,-40.85,0,*59
1487012606.2,42810,11.81,74294.5,-8.63,-40.79,-41.03,0,*5E
1487012607.43,42811,11.81,74292.5,-8.63,-40.73,-40.85,0,*5A
1487012608.7,42812,11.81,74292.5,-8.65,-40.91,-41.23,0,*5E
1487012609.96,42813,11.81,74292.3,-8.63,-40.79,-40.97,0,*51
1487012611.19,42814,11.81,74292.3,-8.63,-40.73,-40.97,0,*5C
1487012612.43,42815,11.81,74292.3,-8.63,-40.73,-40.97,0,*5D
1487012613.7,42816,11.75,74288.0,-8.65,-40.85,-40.91,0,*57
1487012614.92,42817,11.75,74292.8,-8.63,-40.73,-40.79,0,*5F
1487012616.14,42818,11.81,74292.8,-8.63,-41.03,-41.11,0,*59
1487012617.38,42819,11.81,74294.3,-8.65,-40.91,-41.03,0,*57
1487012618.65,42820,11.81,74294.0,-8.65,-40.85,-40.91,0,*52
1487012619.88,42821,11.81,74292.3,-8.63,-40.59,-40.73,0,*58
1487012621.14,42822,11.75,74290.8,-8.63,-40.59,-40.59,0,*53
1487012622.36,42823,11.75,74290.3,-8.63,-40.65,-40.79,0,*5F
1487012623.62,42824,11.75,74290.5,-8.65,-40.65,-40.85,0,*5D
1487012624.85,42825,11.81,74294.8,-8.65,-40.65,-40.91,0,*59
1487012626.08,42826,11.81,74296.0,-8.63,-40.73,-40.79,0,*5D
1487012627.31,42827,11.81,74292.0,-8.63,-40.73,-40.85,0,*5F
1487012628.58,42828,11.75,74294.0,-8.65,-40.85,-41.03,0,*50
1487012629.84,42829,11.75,74288.3,-8.65,-40.85,-41.03,0,*51
1487012631.08,42830,11.81,74294.8,-8.63,-40.73,-40.85,0,*59
1487012632.34,42831,11.75,74288.0,-8.67,-40.79,-40.85,0,*56
1487012633.6,42832,11.81,74294.3,-8.65,-40.85,-40.91,0,*51
1487012634.86,42833,11.81,74292.3,-8.67,-40.79,-40.85,0,*54
1487012636.12,42834,11.81,74294.0,-8.65,-40.85,-40.91,0,*57
1487012637.38,42835,11.81,74294.0,-8.65,-40.79,-41.03,0,*5F
1487012638.67,42836,11.75,74292.8,-8.65,-40.79,-40.85,0,*53
1487012639.93,42837,11.81,74296.3,-8.65,-40.59,-40.65,0,*5E
1487012641.19,42838,11.75,74288.3,-8.65,-40.85,-41.03,0,*51
1487012642.45,42839,11.75,74294.8,-8.65,-40.85,-40.91,0,*5A
1487012643.7,42840,11.75,74292.3,-8.67,-40.85,-40.91,0,*56
1487012644.98,42841,11.81,74294.8,-8.65,-40.79,-40.85,0,*53
1487012646.24,42842,11.81,74294.5,-8.65,-40.85,-41.03,0,*5C
1487012647.48,42843,11.81,74292.5,-8.65,-40.91,-41.11,0,*5B
1487012648.74,42844,11.75,74290.0,-8.67,-40.79,-40.85,0,*54
1487012650.0,42845,11.81,74292.5,-8.67,-40.79,-40.85,0,*55
1487012651.24,42846,11.75,74292.0,-8.67,-40.79,-41.03,0,*59
1487012652.54,42847,11.75,74290.5,-8.69,-40.85,-40.97,0,*59
1487012653.8,42848,11.81,74294.5,-8.69,-40.85,-40.91,0,*50
1487012655.04,42849,11.75,74290.3,-8.67,-40.65,-40.85,0,*54
1487012656.27,42850,11.75,74290.5,-8.67,-40.59,-40.65,0,*5D
1487012657.5,42851,11.75,74290.8,-8.67,-40.65,-40.85,0,*5D
1487012658.73,42852,11.81,74298.3,-8.69,-40.65,-40.73,0,*59
1487012659.97,42853,11.81,74292.3,-8.67,-40.47,-40.59,0,*5E
1487012661.2,42854,11.75,74290.8,-8.67,-40.41,-40.47,0,*50
1487012662.43,42855,11.81,74292.0,-8.69,-40.65,-40.73,0,*5E
1487012663.67,42856,11.75,74290.5,-8.67,-40.59,-40.65,0,*5B
1487012664.93,42857,11.75,74292.0,-8.69,-40.73,-40.85,0,*52
1487012666.16,42858,11.75,74292.5,-8.67,-40.65,-40.79,0,*57
1487012667.42,42859,11.81,74294.0,-8.67,-40.79,-40.85,0,*58
1487012668.64,42860,11.75,74288.3,-8.67,-40.65,-40.79,0,*5C
1487012669.9,42861,11.75,74292.8,-8.69,-40.65,-40.85,0,*50
1487012671.11,42862,11.81,74294.8,-8.67,-40.47,-40.65,0,*53
1487012672.34,42863,11.75,74290.8,-8.69,-40.53,-40.65,0,*59
1487012673.59,42864,11.81,74294.3,-8.65,-40.65,-40.79,0,*5A
1487012674.82,42865,11.75,74292.3,-8.67,-40.59,-40.65,0,*5B
1487012676.05,42866,11.81,74294.0,-8.67,-40.65,-40.79,0,*5A
1487012677.3,42867,11.75,74292.0,-8.67,-40.59,-40.79,0,*54
1487012678.53,42868,11.75,74288.3,-8.67,-40.65,-40.79,0,*54
1487012679.76,42869,11.81,74292.3,-8.67,-40.59,-40.65,0,*57
1487012681.03,42870,11.81,74294.5,-8.67,-40.41,-40.59,0,*59
1487012682.26,42871,11.75,74290.3,-8.67,-40.47,-40.59,0,*5E
1487012683.52,42872,11.75,74288.8,-8.65,-40.47,-40.59,0,*5F
1487012684.78,42873,11.81,74292.5,-8.65,-40.41,-40.47,0,*57
1487012686.02,42874,11.81,74290.8,-8.63,-40.47,-40.59,0,*5F
1487012687.27,42875,11.75,74290.8,-8.65,-40.59,-40.65,0,*58
1487012688.52,42876,11.81,74292.5,-8.65,-40.65,-40.79,0,*59
1487012689.78,42877,11.75,74292.5,-8.65,-40.65,-40.85,0,*5B
1487012691.02,42878,11.75,74288.3,-8.67,-40.47,-40.59,0,*57
1487012692.25,42879,11.75,74292.0,-8.67,-40.47,-40.59,0,*56
1487012693.49,42880,11.75,74290.5,-8.67,-40.47,-40.59,0,*50
1487012694.73,42881,11.75,74288.3,-8.67,-40.41,-40.47,0,*58
1487012695.96,42882,11.81,74294.3,-8.67,-40.41,-40.47,0,*5B
1487012697.22,42883,11.75,74292.8,-8.67,-40.21,-40.29,0,*54
1487012698.45,42884,11.75,74292.8,-8.67,-40.41,-40.47,0,*5D
1487012699.69,42885,11.75,74290.8,-8.67,-40.47,-40.59,0,*55
1487012700.92,42886,11.75,74290.3,-8.67,-40.59,-40.65,0,*56
1487012702.15,42887,11.81,74292.5,-8.65,-40.47,-40.65,0,*5A
1487012703.44,42888,11.75,74292.0,-8.65,-40.21,-40.41,0,*53
1487012704.7,42889,11.75,74290.0,-8.65,-40.41,-40.65,0,*52
1487012705.93,42890,11.81,74292.5,-8.63,-40.59,-40.73,0,*52
1487012707.18,42891,11.75,74292.0,-8.65,-40.65,-40.79,0,*50
1487012708.46,42892,11.75,74292.3,-8.65,-40.79,-40.85,0,*5D
1487012709.69,42893,11.81,74294.3,-8.65,-40.65,-40.91,0,*54
1487012710.92,42894,11.81,74294.8,-8.65,-40.65,-40.65,0,*58
1487012712.15,42895,11.75,74290.8,-8.67,-40.65,-40.79,0,*56
1487012713.39,42896,11.81,74294.0,-8.67,-40.59,-40.91,0,*5C
1487012714.59,42897,11.75,74290.3,-8.67,-40.65,-40.91,0,*52
1487012715.83,42898,11.81,74294.3,-8.67,-40.59,-40.65,0,*59
1487012717.09,42899,11.75,74294.0,-8.67,-40.41,-40.29,0,*59
1487012718.33,42900,11.75,74290.0,-8.67,-40.41,-40.47,0,*50
1487012719.56,42901,11.75,74292.5,-8.69,-40.47,-40.65,0,*59
1487012720.85,42902,11.81,74290.8,-8.65,-40.41,-40.41,0,*56
1487012722.11,42903,11.75,74288.5,-8.65,-40.47,-40.41,0,*51
1487012723.39,42904,11.75,74288.8,-8.65,-40.21,-40.41,0,*56
1487012724.68,42905,11.75,74290.8,-8.65,-40.29,-40.41,0,*5F
1487012725.93,42906,11.75,74292.3,-8.67,-40.29,-40.29,0,*50
1487012727.19,42907,11.75,74290.8,-8.65,-40.47,-40.59,0,*5C
1487012728.46,42908,11.75,74288.5,-8.65,-40.47,-40.59,0,*53
1487012729.75,42909,11.75,74290.3,-8.65,-40.41,-40.59,0,*54
1487012731.0,42910,11.75,74292.3,-8.65,-40.65,-40.79,0,*58
1487012732.23,42911,11.75,74290.8,-8.63,-40.59,-40.73,0,*5A
1487012733.45,42912,11.75,74290.5,-8.65,-40.65,-40.65,0,*57
1487012734.66,42913,11.75,74288.3,-8.67,-40.65,-40.65,0,*54
1487012735.89,42914,11.81,74292.5,-8.63,-40.47,-40.59,0,*58
1487012737.09,42915,11.81,74292.3,-8.63,-40.35,-40.47,0,*53
1487012738.38,42916,11.81,74294.5,-8.65,-40.41,-40.41,0,*53
1487012739.65,42917,11.75,74288.5,-8.65,-40.47,-40.59,0,*5D
1487012740.91,42918,11.75,74292.8,-8.65,-40.41,-40.47,0,*5B
1487012742.2,42919,11.81,74292.5,-8.65,-40.41,-40.59,0,*55
1487012743.49,42920,11.75,74290.5,-8.65,-40.41,-40.59,0,*5F
1487012744.75,42921,11.75,74292.5,-8.65,-40.41,-40.47,0,*51
1487012746.03,42922,11.75,74288.5,-8.65,-40.59,-40.59,0,*54
1487012747.3,42923,11.81,74292.0,-8.63,-40.41,-40.59,0,*5A
1487012748.56,42924,11.75,74292.8,-8.65,-40.59,-40.65,0,*5D
1487012749.79,42925,11.75,74294.3,-8.63,-40.59,-40.73,0,*5D
1487012751.07,42926,11.75,74290.5,-8.65,-40.59,-40.79,0,*52
1487012752.32,42927,11.75,74292.3,-8.63,-40.59,-40.79,0,*55
1487012753.55,42928,11.75,74292.5,-8.63,-40.73,-40.79,0,*52
1487012754.78,42929,11.75,74294.5,-8.63,-40.59,-40.73,0,*51
1487012756.03,42930,11.75,74290.8,-8.65,-40.65,-40.85,0,*59
1487012757.3,42931,11.75,74290.5,-8.67,-40.59,-40.59,0,*54
1487012758.53,42932,11.75,74292.3,-8.67,-40.47,-40.59,0,*58
1487012759.82,42933,11.75,74290.3,-8.65,-40.41,-40.59,0,*5D
1487012761.11,42934,11.75,74290.5,-8.65,-40.21,-40.41,0,*55
1487012762.34,42935,11.75,74292.5,-8.65,-40.65,-41.03,0,*53
1487012763.6,42936,11.75,74288.0,-8.65,-40.79,-40.91,0,*57
1487012764.85,42937,11.75,74290.5,-8.65,-40.79,-40.65,0,*5D
1487012766.08,42938,11.75,74288.8,-8.65,-40.47,-40.47,0,*5F
1487012767.36,42939,11.75,74292.5,-8.65,-40.59,-40.79,0,*5C
1487012768.62,42940,11.75,74290.8,-8.63,-40.59,-40.59,0,*56
1487012769.88,42941,11.75,74292.3,-8.65,-40.59,-40.65,0,*5E
1487012771.16,42942,11.75,74292.8,-8.65,-40.59,-40.79,0,*50
1487012772.4,42943,11.75,74292.8,-8.67,-40.85,-40.91,0,*54
1487012773.66,42944,11.75,74292.3,-8.67,-40.79,-40.85,0,*55
1487012774.88,42945,11.75,74294.5,-8.67,-40.65,-40.79,0,*5A
1487012776.12,42946,11.75,74290.5,-8.67,-40.65,-40.85,0,*5A
1487012777.34,42947,11.75,74290.8,-8.67,-40.65,-40.79,0,*58
1487012778.57,42948,11.75,74294.5,-8.67,-40.59,-40.65,0,*55
1487012779.81,42949,11.75,74292.3,-8.69,-40.47,-40.65,0,*55
1487012781.03,42950,11.75,74288.3,-8.67,-40.65,-40.79,0,*5E
1487012782.27,42951,11.75,74292.5,-8.67,-40.47,-40.59,0,*5D
1487012783.5,42952,11.75,74288.8,-8.67,-40.59,-40.65,0,*5E
1487012784.76,42953,11.75,74290.3,-8.67,-40.29,-40.29,0,*50
1487012786.02,42954,11.75,74292.8,-8.67,-40.41,-40.59,0,*5E
1487012787.26,42955,11.75,74292.8,-8.67,-40.47,-40.59,0,*59
1487012788.52,42956,11.75,74290.5,-8.67,-40.59,-40.79,0,*57
1487012789.78,42957,11.75,74292.0,-8.63,-40.59,-40.59,0,*50
1487012791.06,42958,11.75,74290.3,-8.65,-40.59,-40.79,0,*5B
1487012792.35,42959,11.75,74288.5,-8.65,-40.41,-40.59,0,*51
1487012793.6,42960,11.75,74290.0,-8.65,-40.65,-40.79,0,*5F
1487012794.85,42961,11.75,74290.3,-8.65,-40.65,-40.85,0,*5D
1487012796.12,42962,11.75,74288.3,-8.67,-40.59,-40.85,0,*53
1487012797.35,42963,11.75,74292.0,-8.67,-40.59,-40.65,0,*5C
1487012798.59,42964,11.75,74292.5,-8.67,-40.47,-40.59,0,*5B
1487012799.82,42965,11.75,74290.0,-8.69,-40.35,-40.47,0,*5E
1487012801.09,42966,11.75,74290.3,-8.67,-40.41,-40.59,0,*5F
1487012802.32,42967,11.75,74290.8,-8.69,-40.47,-40.47,0,*59
1487012803.58,42968,11.75,74294.8,-8.67,-40.21,-40.41,0,*5E
1487012804.84,42969,11.75,74292.3,-8.67,-40.41,-40.59,0,*50
1487012806.05,42970,11.75,74294.0,-8.67,-40.65,-40.65,0,*51
1487012807.25,42971,11.75,74290.0,-8.67,-40.65,-40.65,0,*50
1487012808.51,42972,11.75,74292.5,-8.67,-40.41,-40.41,0,*53
1487012809.77,42973,11.75,74290.8,-8.67,-40.29,-40.41,0,*5C
1487012811.03,42974,11.75,74290.5,-8.69,-40.65,-40.85,0,*55
1487012812.27,42975,11.75,74292.3,-8.67,-40.47,-40.79,0,*59
1487012813.5,42976,11.75,74290.8,-8.67,-40.65,-40.85,0,*59
1487012814.72,42977,11.75,74292.8,-8.67,-40.65,-40.79,0,*5B
1487012815.95,42978,11.75,74288.0,-8.67,-40.65,-40.79,0,*54
1487012817.15,42979,11.75,74288.0,-8.67,-40.47,-40.47,0,*58
1487012818.39,42980,11.75,74294.3,-8.67,-40.41,-40.47,0,*58
1487012819.63,42981,11.75,74288.0,-8.67,-40.41,-40.47,0,*59
1487012820.87,42982,11.75,74290.8,-8.69,-40.73,-40.91,0,*5E
1487012822.1,42983,11.75,74290.8,-8.67,-40.79,-40.91,0,*5B
1487012823.31,42984,11.81,74296.8,-8.67,-40.47,-40.65,0,*5A
1487012824.55,42985,11.75,74288.3,-8.67,-40.41,-40.47,0,*5D
1487012825.8,42986,11.75,74294.0,-8.67,-40.21,-40.21,0,*58
1487012827.05,42987,11.75,74290.5,-8.67,-40.59,-40.79,0,*5B
1487012828.26,42988,11.75,74290.3,-8.67,-40.65,-40.73,0,*51
1487012829.51,42989,11.75,74292.5,-8.67,-40.59,-40.79,0,*55
1487012830.71,42990,11.75,74290.3,-8.67,-40.65,-40.65,0,*5F
1487012831.98,42991,11.75,74288.3,-8.69,-40.73,-40.85,0,*59
1487012833.21,42992,11.75,74290.5,-8.67,-40.65,-40.85,0,*53
1487012834.48,42993,11.75,74290.5,-8.67,-40.41,-40.59,0,*55
1487012835.75,42994,11.75,74288.3,-8.67,-40.41,-40.59,0,*52
1487012836.98,42995,11.75,74288.0,-8.67,-40.41,-40.47,0,*5C
1487012838.25,42996,11.75,74290.8,-8.67,-40.41,-40.59,0,*50
1487012839.51,42997,11.75,74288.8,-8.67,-40.59,-40.85,0,*59
1487012840.72,42998,11.75,74290.5,-8.67,-40.47,-40.65,0,*57
1487012841.98,42999,11.75,74294.5,-8.67,-40.29,-40.41,0,*58
1487012843.21,43000,11.75,74294.3,-8.67,-40.59,-40.65,0,*51
1487012844.41,43001,11.75,74288.8,-8.67,-40.65,-40.65,0,*5F
1487012845.62,43002,11.75,74288.5,-8.67,-40.53,-40.53,0,*5C
1487012846.87,43003,11.75,74294.0,-8.69,-40.73,-40.79,0,*59
1487012848.13,43004,11.75,74292.5,-8.67,-40.79,-40.79,0,*5A
1487012849.36,43005,11.75,74292.8,-8.69,-40.47,-40.53,0,*50
1487012850.57,43006,11.75,74288.8,-8.67,-40.47,-40.65,0,*58
1487012851.8,43007,11.75,74294.5,-8.67,-40.59,-40.65,0,*56
1487012853.03,43008,11.75,74292.0,-8.69,-40.65,-40.73,0,*5F
1487012854.26,43009,11.75,74290.3,-8.69,-40.65,-40.65,0,*59
1487012855.49,43010,11.75,74292.3,-8.69,-40.53,-40.65,0,*54
1487012856.73,43011,11.75,74290.3,-8.67,-40.47,-40.59,0,*51
1487012858.0,43012,11.75,74292.3,-8.67,-40.41,-40.59,0,*54
1487012859.23,43013,11.75,74290.5,-8.69,-40.53,-40.65,0,*57
1487012860.46,43014,11.75,74294.8,-8.67,-40.41,-40.47,0,*5D
1487012861.69,43015,11.75,74294.5,-8.69,-40.53,-40.53,0,*54
1487012862.93,43016,11.75,74288.0,-8.67,-40.59,-40.65,0,*56
1487012864.16,43017,11.75,74290.0,-8.67,-40.47,-40.59,0,*57
1487012865.39,43018,11.75,74292.5,-8.67,-40.65,-40.79,0,*5A
1487012866.61,43019,11.75,74292.8,-8.67,-40.65,-40.79,0,*5B
1487012867.84,43020,11.75,74288.0,-8.69,-40.65,-40.73,0,*55
1487012869.05,43021,11.75,74292.5,-8.67,-40.53,-40.65,0,*58
1487012870.28,43022,11.75,74294.5,-8.69,-40.47,-40.47,0,*50
1487012871.51,43023,11.75,74290.5,-8.67,-40.59,-40.65,0,*50
1487012872.77,43024,11.75,74290.3,-8.67,-40.59,-40.79,0,*5A
1487012874.0,43025,11.75,74290.0,-8.69,-40.65,-40.73,0,*50
1487012875.22,43026,11.75,74290.3,-8.67,-40.65,-40.79,0,*57
1487012876.46,43027,11.75,74290.8,-8.67,-40.65,-40.85,0,*55
1487012877.7,43028,11.75,74292.8,-8.69,-40.73,-40.91,0,*56
1487012878.96,43029,11.75,74292.5,-8.69,-40.73,-40.85,0,*52
1487012880.18,43030,11.75,74294.5,-8.67,-40.65,-40.79,0,*50
1487012881.41,43031,11.75,74292.5,-8.67,-40.65,-40.79,0,*51
1487012882.67,43032,11.75,74288.0,-8.67,-40.59,-40.79,0,*5D
1487012883.93,43033,11.75,74290.3,-8.69,-40.73,-40.97,0,*5A
1487012885.19,43034,11.75,74288.8,-8.69,-40.65,-40.85,0,*59
1487012886.43,43035,11.75,74288.0,-8.69,-40.73,-40.91,0,*5A
1487012887.66,43036,11.75,74292.8,-8.69,-40.65,-40.65,0,*55
1487012888.9,43037,11.75,74294.8,-8.69,-40.73,-40.91,0,*58
1487012890.14,43038,11.75,74290.8,-8.71,-40.65,-40.97,0,*5F
1487012891.37,43039,11.75,74290.8,-8.71,-40.65,-40.85,0,*5D
1487012892.58,43040,11.75,74292.8,-8.71,-40.47,-40.73,0,*5A
1487012893.78,43041,11.75,74294.5,-8.71,-40.53,-40.65,0,*59
1487012895.02,43042,11.75,74296.0,-8.71,-40.65,-40.85,0,*51